DAURIA DX 1
1 40071U 14037C 16259.75050782 .00000235 00000-0 37822-4 0 9990
2 40071 98.3316 354.1528 0007666 207.6598 152.4211 14.80870244118356
UKUBE-1
1 40074U 14037F 16259.81731316 .00000647 00000-0 86406-4 0 9998
2 40074 98.3366 356.7481 0003949 202.2184 157.8850 14.83185210118502
HODOYOSHI-1
1 40299U 14070B 16259.76354314 .00001432 00000-0 66527-4 0 9992
2 40299 97.4260 340.4466 0012955 342.0480 116.7917 15.21567784103208
CHUBUSAT-1
1 40300U 14070C 16259.86430874 .00001624 00000-0 77979-4 0 9998
2 40300 97.4211 338.5201 0020878 346.3473 106.8365 15.20101607103107
QSAT-EOS
1 40301U 14070D 16259.86920788 .00003211 00000-0 14380-3 0 9997
2 40301 97.4154 337.9812 0028324 343.5093 124.2796 15.21630781103097
FIREBIRD FU3
1 40377U 15003B 16259.81312689 .00007697 00000-0 34206-3 0 9998
2 40377 99.0954 23.9191 0142046 190.0696 169.7679 15.13224029 89485
FIREBIRD FU4
1 40378U 15003C 16259.80889304 .00007602 00000-0 33754-3 0 9994
2 40378 99.0955 23.9326 0142253 190.0211 169.8173 15.13234560 89481
GRIFEX
1 40379U 15003D 16259.78862972 .00005045 00000-0 23589-3 0 9998
2 40379 99.0956 22.7685 0146618 194.5276 165.1714 15.11305644 89410
NO-84
1 40654U 15025D 16259.32377161 .00008731 00000-0 18882-3 0 02234
2 40654 055.0020 019.9012 0198370 297.8100 060.2950 15.27237710037805
NO-83
1 40655U 15025E 16259.31116831 .00014428 00000-0 27600-3 0 02451
2 40655 054.9888 010.2650 0177934 302.5544 055.8519 15.32995040037913
DEORBITSAIL
1 40719U 15032E 16259.20487810 .00000737 00000-0 11528-3 0 9992
2 40719 98.0052 149.9978 0015761 312.0808 47.9060 14.75676359 63767
NUDT-PHONESAT
1 40900U 15049B 16259.78509509 .00004610 00000-0 23257-3 0 9991
2 40900 97.4456 265.9465 0016814 100.8560 259.4567 15.17497578 54817
XW-2D
1 40907U 15049J 16259.86492536 .00001709 00000-0 97723-4 0 9994
2 40907 97.4518 264.8511 0016716 83.4113 276.9021 15.13897107 54721
XW-2F
1 40910U 15049M 16259.86827742 .00002295 00000-0 12793-3 0 9993
2 40910 97.4541 265.1447 0017772 82.3388 277.9862 15.14462333 54621
XW-2B
1 40911U 15049N 16259.86553301 .00001632 00000-0 93520-4 0 9993
2 40911 97.4565 265.0783 0016607 83.6292 276.6830 15.13875227 54624
DCBB
1 40912U 15049P 16259.83310281 .00002612 00000-0 13722-3 0 9993
2 40912 97.4547 266.1467 0018251 77.8135 4.2012 15.16442742 54693
TW-1C
1 40926U 15051B 16259.88505934 .00010366 00000-0 27882-3 0 9994
2 40926 97.2682 295.8600 0015565 84.3328 40.3160 15.37943190 54697
TW-1A
1 40928U 15051D 16259.83401374 .00003980 00000-0 12322-3 0 9991
2 40928 97.2635 294.4318 0015706 100.7767 313.6802 15.33926839 54613
IO-86
1 40931U 15052B 16259.66285702 .00000638 00000-0 -11911-6 0 9996
2 40931 5.9985 30.0667 0013457 322.0953 37.8225 14.76480697 52322
GomX-3
1 40949U 98067HA 16259.60761028 .00204647 27720-4 48722-3 0 9990
2 40949 51.6235 281.7497 0004637 26.0022 334.1219 15.96221804 54415
LQSat
1 40958U 15057A 16259.80066937 .00000096 00000-0 22768-4 0 9990
2 40958 98.0087 333.4733 0017204 221.6054 138.3841 14.72897697 50722
AO-85
1 40967U 15058D 16259.42857897 .00000807 00000-0 10691-3 0 02570
2 40967 064.7800 332.1863 0193006 176.3435 183.9102 14.75153792036587
ATHENOXAT-1
1 41168U 15077C 16259.66745065 .00003701 00000-0 17924-3 0 9999
2 41168 14.9863 13.2364 0011734 174.8568 310.1383 15.10371136 41458
ChubuSat-2
1 41338U 16012B 16259.72127728 .00000748 00000-0 52578-4 0 9998
2 41338 31.0037 55.1072 0014082 223.6737 136.2784 14.99485179 31754
ChubuSat-3
1 41339U 16012C 16259.75516753 .00000679 00000-0 46806-4 0 9992
2 41339 31.0112 54.5014 0014158 230.3663 129.5731 14.99709694 31731
Horyu-4
1 41340U 16012D 16258.83534313 .00001064 00000-0 76268-4 0 9998
2 41340 31.0055 59.4664 0014403 226.7255 133.2179 15.00177677 31622
OUFTI-1
1 41458U 16025C 16259.26126441 .00004182 00000-0 23320-3 0 9993
2 41458 98.2092 274.9018 0178575 127.2876 234.4780 15.01568798 21293
e-st@r-II
1 41459U 16025D 16259.79575442 .00003946 00000-0 22068-3 0 9996
2 41459 98.2092 275.4563 0178487 125.5453 236.2559 15.01526282 21374
AAUSAT4
1 41460U 16025E 16259.77676564 .00004108 00000-0 22912-3 0 9992
2 41460 98.2120 275.4930 0176126 124.5219 237.2769 15.01885466 21379
MinXSS
1 41474U 98067HU 16259.80464708 .00048641 00000-0 54774-3 0 9993
2 41474 51.6429 322.5716 0002007 70.2535 289.8675 15.62057648 19072
CADRE
1 41475U 98067HV 16259.81291092 .00076339 00000-0 73349-3 0 9993
2 41475 51.6392 321.1065 0002544 25.0200 335.0919 15.65899598 19095
NODES 1
1 41477U 98067HX 16259.54697182 .00029696 00000-0 36307-3 0 9992
2 41477 51.6400 324.5856 0002097 63.5808 296.5400 15.60152027 18938
NODES 2
1 41478U 98067HY 16259.61416275 .00029199 00000-0 35792-3 0 9998
2 41478 51.6399 324.2833 0002010 62.8002 297.3196 15.60093022 18942
NuSat1-LUSEX
1 41557U 16033B 16259.82410640 .00002753 00000-0 11058-3 0 9998
2 41557 97.4920 333.1409 0013172 253.1484 201.8405 15.25750331 16570
NuSat2
1 41558U 16033C 16259.83394947 .00002881 00000-0 11608-3 0 9994
2 41558 97.4943 333.1588 0012791 250.6429 203.5975 15.25613197 16570
Lapan A3
1 41603U 16040E 16259.85785255 .00000327 00000-0 18865-4 0 9997
2 41603 97.5036 318.4798 0012692 317.1435 163.4682 15.19120739 13002
Swayam
1 41607U 16040J 16259.63703838 .00003425 00000-0 16501-3 0 9990
2 41607 97.5005 318.2359 0013671 319.6195 40.4023 15.19349155 12895
/EX
1
0
SB KEPS @ AMSAT $ORB16252.N
2Line Orbital Elements 16252.AMSAT
HR AMSAT ORBITAL ELEMENTS FOR AMATEUR SATELLITES IN NASA FORMAT
FROM WA5QGD FORT WORTH,TX September 8, 2016
BID: ORB16252.N
DECODE 2-LINE ELSETS WITH THE FOLLOWING KEY:
1 AAAAAU 00 0 0 BBBBB.BBBBBBBB .CCCCCCCC 00000-0 00000-0 0 DDDZ
2 AAAAA EEE.EEEE FFF.FFFF GGGGGGG HHH.HHHH III.IIII JJ.JJJJJJJJKKKKKZ
KEY: A-CATALOGNUM B-EPOCHTIME C-DECAY D-ELSETNUM E-INCLINATION F-RAAN
G-ECCENTRICITY H-ARGPERIGEE I-MNANOM J-MNMOTION K-ORBITNUM Z-CHECKSUM
TO ALL RADIO AMATEURS BT
AO-07
1 07530U 74089B 16252.13345088 -.00000030 00000-0 87376-4 0 9990
2 07530 101.5843 220.8983 0012115 147.6951 273.0849 12.53622924913512
FO-29
1 24278U 96046B 16252.35911119 -.00000036 00000-0 15815-5 0 9999
2 24278 98.5823 166.6838 0350305 347.4684 11.7911 13.53070475990766
RS-22
1 27939U 03042A 16252.88282613 .00000210 00000-0 46345-4 0 9992
2 27939 97.9009 41.3877 0013928 44.0481 117.2467 14.66447343692085
AO-73
1 39444U 13066AE 16252.12254104 .00000602 00000-0 81650-4 0 9997
2 39444 97.6728 302.1212 0060300 109.4348 251.3394 14.81157779149858
EO-79
1 40025U 14033R 16252.70898754 .00000604 00000-0 71679-4 0 9990
2 40025 97.9206 158.1187 0013349 144.3709 215.8401 14.88105114120620
XW-2A
1 40903U 15049E 16252.84645075 .00003984 00000-0 11214-3 0 9996
2 40903 97.4443 269.0301 0015363 188.9836 171.1136 15.36969681 54408
